Regional Weather Roundup
Issued by NWS

Home | Current Version | Previous Version | Graphics & Text | Print | Product List | Glossary On
Versions: 1 2 3 4 5 6 7 8 9 10 11 12 13 14 15 16 17 18 19 20 21 22 23 24 25 26 27 28 29 30 31 32 33 34 35 36 37 38 39 40 41 42 43 44 45 46 47 48 49 50
000
ASUS43 KDMX 221407
RWRIA

WEATHER ROUNDUP FOR IOWA
NATIONAL WEATHER SERVICE DES MOINES IA
900 AM CDT FRI AUG 22 2014

NOTE: "FAIR" INDICATES FEW OR NO CLOUDS BELOW 12,000 FEET WITH NO
SIGNIFICANT WEATHER AND/OR OBSTRUCTIONS TO VISIBILITY.

* - THESE STATIONS ARE NOT NWS STATIONS...THUS NOT UNDER NWS
QUALITY CONTROL.  THEY ALSO DO NOT REPORT WEATHER SUCH
AS PRECIPITATION OR FOG.

IAZ001>003-012>014-020>022-031>034-043>046-221500-
   NORTHWEST IOWA

CITY           SKY/WX    TMP DP  RH WIND       PRES   REMARKS
CARROLL *      SUNNY     77  72  83 SW6       29.93R
CHEROKEE *     SUNNY     73  72  94 NE6       29.92R
DENISON *      SUNNY     77  75  94 CALM      29.91S
LE MARS *      SUNNY     73  70  88 N6        29.93R
ORANGE CITY *  SUNNY     75  70  83 NE6       29.94R
SHELDON *      FOG       72  72 100 E5        29.94R VSB 0
SIOUX CITY     SUNNY     79  72  79 CALM      29.92R HX  82
SPENCER        FOG       73  72  96 NE10      29.95R VSB 1
STORM LAKE *   SUNNY     75  75 100 NE6       29.94R
$$

IAZ055>058-069>071-079>083-090>094-221500-
   SOUTHWEST IOWA

CITY           SKY/WX    TMP DP  RH WIND       PRES   REMARKS
ATLANTIC *     SUNNY     73  72  94 N3        29.92S
AUDUBON *      SUNNY     79  73  83 CALM      29.94S HX  82
CLARINDA *     SUNNY     77  75  94 CALM      29.94R
COUNCIL BLFS * SUNNY     75  75 100 SE6       29.91S
CRESTON *      MOSUNNY   77  73  88 S7        29.93S
HARLAN  *      SUNNY     75  73  94 CALM      29.96S
LAMONI         MOSUNNY   80  74  81 S10       29.93S HX  85
RED OAK *      MOSUNNY   73  72  94 CALM      29.93R
SHENANDOAH *   SUNNY     77  73  88 CALM      29.93R
$$

IAZ047>049-059>061-072>074-084-221500-
   CENTRAL IOWA

CITY           SKY/WX    TMP DP  RH WIND       PRES   REMARKS
AMES           PTSUNNY   75  73  93 SE3       29.93R
ANKENY *       PTSUNNY   75  72  88 SE6       29.92F
CHARITON *     SUNNY     77  73  88 S7        29.92S
DES MOINES     PTSUNNY   77  70  79 E6        29.92S
GRINNELL*      PTSUNNY   75  70  83 SW5       29.94R
KNOXVILLE *    SUNNY     77  72  83 CALM      29.91S
MARSHALLTOWN   PTSUNNY   78  73  84 S7        29.93R HX  81
PELLA *        PTSUNNY   77  73  88 CALM      29.94S
PERRY *          N/A     75  72  88 CALM      29.92S
$$

IAZ004>006-015-016-023>025-035-036-221500-
   NORTH CENTRAL IOWA

CITY           SKY/WX    TMP DP  RH WIND       PRES   REMARKS
ALGONA *       PTSUNNY   73  73 100 NE7G13    29.94R FOG
CLARION *      MOSUNNY   77  77 100 N8        29.91S
ESTHERVILLE    FOG       71  71 100 NE7       29.94S VSB<1/4
FORT DODGE *   CLOUDY    75  73  94 SE3       29.93R
MASON CITY     CLOUDY    75  73  93 NE7       29.95R FOG
FOREST CITY *  CLOUDY    73  73 100 N6        29.95R FOG
IOWA FALLS *   CLOUDY    75  73  94 CALM      29.94S
$$

IAZ007>011-017>019-026>030-037>042-050>054-066-221500-
   NORTHEAST IOWA

CITY           SKY/WX    TMP DP  RH WIND       PRES   REMARKS
CEDAR RAPIDS   LGT RAIN  75  74  96 W8        29.92R
CHARLES CITY * FOG       73  73 100 CALM      29.94R VSB 0
CLINTON *      CLOUDY    75  73  94 S9        29.95S
DECORAH *      CLOUDY    73  73 100 CALM      29.92R FOG
DUBUQUE        CLOUDY    73  73 100 SE5       29.94R
MONTICELLO *   CLOUDY    73  73 100 CALM      29.92S FOG
OELWEIN *      PTSUNNY   75  73  94 SE5       29.94R FOG
WATERLOO       PTSUNNY   75  73  93 CALM      29.91R FOG
$$

IAZ064-065-067-068-078-221500-
   EAST CENTRAL IOWA

CITY           SKY/WX    TMP DP  RH WIND       PRES   REMARKS
DAVENPORT      TSTM      71  68  90 S7        29.91F FOG
IOWA CITY      CLOUDY    76  76 100 W6        29.93F
MT. PLEASANT * CLOUDY    77  73  88 SW5       29.96R
MUSCATINE *    SUNNY     75  73  94 SW7       29.92F
QUAD CITIES    TSTM      71  69  93 SE14      29.92R FOG
$$

IAZ062-063-075>077-085>089-095>099-221500-
   SOUTHEAST IOWA

CITY           SKY/WX    TMP DP  RH WIND       PRES   REMARKS
BURLINGTON     LGT RAIN  77  75  93 N5        29.94R
FAIRFIELD *    SUNNY     75  72  88 SE5       29.95R
FORT MADISON * DRIZZLE   75  75 100 N6        29.96R
KEOKUK *       LGT RAIN  75  73  94 SW8G14    29.91S
OSKALOOSA *      N/A     75  73  94 CALM      29.94R
CENTERVILLE *  SUNNY     75  75 100 SW5       29.94S
OTTUMWA        CLOUDY    75  71  87 SE5       29.92R
WASHINGTON *   SUNNY     75  75 100 S7        29.94R
$$

ABBREVIATIONS USED IN REMARKS
   TC - TEMPERATURES IN CELSIUS
  WCI - WIND CHILL INDEX
   HX - HEAT INDEX
  VSB - VISIBILITY
$$




USA.gov is the U.S. government's official web portal to all federal, state and local government web resources and services.